User: anonymous   Login
Location: Veyrier
(46.1830°N, 6.2000°E)
Time: 21:40:08
(UTC+02:00)
Language:

Iridium 98 - Orbit

View from above orbital plane
View from above orbital plane
View from above satellite
View from above satellite

Ground track
Ground track

The orbit data is extracted from the following two-line orbital elements,

1 27451U 02031B   18147.34180513  .00000156  00000-0  48768-4 0  9990
2 27451  86.3986 238.2685 0001904  93.4794 266.6619 14.34222194840634
Epoch (UTC): 27 May 2018 08:12:11
Eccentricity: 0.0001904
inclination: 86.3986°
perigee height: 776 km
apogee height: 779 km
right ascension of ascending node: 238.2685°
argument of perigee: 93.4794°
revolutions per day: 14.34222194
mean anomaly at epoch: 266.6619°
orbit number at epoch: 84063

The dashed part of the orbit path shows where the satellite is in the earth's shadow,  

DLR